Location: Recife
(8.0585°S, 34.8848°W)
Time: 13:21:26
(UTC-03:00)

Tiros 1 despin weight - Pass Details

Date: 21 April 2026
Orbit: 555 x 591 km, 48.2° (Epoch: 14 May)

Event Time Altitude Azimuth Distance (km) Brightness Sun altitude
Rises 22:03:05 0° 342° (NNW) 2,796 - -71.1°
Reaches altitude 10° 22:05:38 10° 355° (N) 1,903 - -71.7°
Maximum altitude 22:09:17 26° 52° (NE) 1,170 - -72.6°
Drops below altitude 10° 22:12:58 10° 109° (ESE) 1,914 - -73.4°
Sets 22:15:32 0° 121° (ESE) 2,817 - -74.1°
